Location: Paddlesworth
(51.1000°N, 1.1333°E)
Time: 07:22:48
(UTC+00:00)

ATLAS 5 CENTAUR R/B - Pass Details

Date: 11 May 2021
Orbit: 513 x 1144 km, 63.3° (Epoch: 18 June)

Event Time Altitude Azimuth Distance (km) Brightness Sun altitude
Rises 20:37:35 0° 312° (NW) 3,230 7.7 -8.8°
Reaches altitude 10° 20:39:56 10° 305° (NW) 2,395 6.2 -9.1°
Maximum altitude 20:45:09 41° 237° (WSW) 1,286 3.3 -9.7°
Drops below altitude 10° 20:51:12 10° 169° (S) 2,785 4.4 -10.3°
Enters shadow 20:51:49 - 168° (SSE) 2,997 4.5 -10.4°
